WB2COY Weather Reports


time (UTC)temp
C
wind
direction
speed
KPH
gust
KPH
rain 1hr
cm
rain 24hr
cm
rain mn
cm
humidity
%
barometer
mb
20260507090016 8 0.0 0.0 0.00 0.76 0.03 76 1009.3
20260507083017 9 0.0 0.0 0.00 0.76 0.03 76 1009.7
20260507080017 9 0.0 0.0 0.00 0.76 0.03 76 1009.8
20260507073016 10 0.0 0.0 0.00 0.76 0.03 76 1009.9
20260507070017 10 0.0 0.0 0.00 0.76 0.03 74 1009.5
20260507063017 10 0.0 0.0 0.03 0.76 0.03 73 1009.2
20260507060017 10 0.0 3.2 0.03 0.76 0.03 72 1008.9
20260507053016 10 0.0 1.6 0.00 0.74 0.00 71 1009.0
20260507050016 10 0.0 4.8 0.00 0.74 0.00 71 1009.0
20260507043018 10 0.0 3.2 0.00 0.74 0.00 71 1009.2
20260507040017 11 0 1.6 4.8 0.00 0.74 0.74 71 1009.5
20260507033018 11 0.0 1.6 0.00 0.74 0.74 71 1009.1
20260507030018 11 0.0 1.6 0.00 0.74 0.74 71 1009.2
20260507023017 11 0.0 1.6 0.00 0.74 0.74 71 1009.6
20260507020017 11 45 1.6 4.8 0.00 0.74 0.74 71 1009.4
20260507013056 12 23 3.2 11.3 0.00 0.74 0.74 71 1008.8
20260507010016 15 23 1.6 8.0 0.00 0.74 0.74 72 1007.9
20260507003016 16 0.0 1.6 0.00 0.74 0.74 79 1007.0
20260507000016 16 0.0 1.6 0.00 0.74 0.74 79 1006.5
20260506233016 16 0.0 3.2 0.00 0.74 0.74 79 1006.3
20260506230017 16 0.0 8.0 0.00 0.74 0.74 79 1006.1
20260506223016 16 0.0 3.2 0.00 0.74 0.74 80 1005.6
20260506220016 16 0.0 4.8 0.00 0.74 0.74 80 1005.4
20260506213016 16 0.0 3.2 0.00 0.74 0.74 80 1005.4
20260506210016 16 0.0 3.2 0.10 0.74 0.74 80 1005.3
20260506203016 16 0.0 6.4 0.13 0.74 0.74 79 1005.3
20260506200016 16 0.0 6.4 0.05 0.64 0.64 77 1005.7
20260506193017 16 225 1.6 9.7 0.10 0.61 0.61 76 1005.8
20260506190057 16 225 1.6 8.0 0.13 0.58 0.58 76 1006.1
20260506183016 16 225 1.6 6.4 0.13 0.51 0.51 73 1006.4
20260506180016 17 0.0 11.3 0.13 0.46 0.46 73 1006.4
20260506173015 17 0.0 3.2 0.13 0.38 0.38 72 1006.5
20260506170016 17 0.0 1.6 0.20 0.33 0.33 71 1006.6
20260506163015 17 0.0 6.4 0.23 0.25 0.25 69 1007.5
20260506160016 17 0.0 4.8 0.13 0.13 0.13 68 1007.7
20260506153038 18 0.0 8.0 0.03 0.03 0.03 66 1007.8
20260506150015 18 0.0 4.8 0.00 0.00 0.00 62 1007.9
20260506143015 19 225 1.6 6.4 0.00 0.00 0.00 58 1008.0
20260506140019 19 0.0 4.8 0.00 0.00 0.00 57 1008.3
20260506133015 20 0.0 6.4 0.00 0.00 0.00 58 1008.1
20260506130015 18 203 1.6 6.4 0.00 0.00 0.00 58 1007.7
20260506123017 18 225 1.6 11.3 0.00 0.00 0.00 60 1008.0
20260506120036 18 0.0 4.8 0.00 0.00 0.00 60 1008.5
20260506113015 18 0.0 11.3 0.00 0.00 0.00 61 1008.0
20260506110015 17 0.0 9.7 0.00 0.00 0.00 60 1007.9
20260506103015 17 0.0 4.8 0.00 0.00 0.00 60 1007.7
20260506100035 18 0.0 6.4 0.00 0.00 0.00 58 1007.6
20260506093015 18 0.0 9.7 0.00 0.00 0.00 57 1007.7